Home   Weather   Mudgee   Past weeks

Flag for Australia Past Weather in Mudgee, New South Wales, Australia — Yesterday and Last 2 Weeks

Now
57 °F

Overcast.


Feels Like: 54 °F
Forecast: 45 / 50 °F
Wind: 14 mph from Northwest

Location: Mudgee Aws

Current Time: Sep 29, 2016 at 1:31:32 PM

Latest Report: Sep 29, 2016 at 12:00 PM


Visibility: N/A

Pressure: 29.47 "Hg

Humidity: 74%

Dew Point: 49 °F

Location of MudgeeLocation

Past Weather in Mudgee — Graph

°F

Mudgee Temperature Yesterday

Maximum temperature yesterday: 65 °F (at 3:00 PM)
Minimum temperature yesterday: 34 °F (at 5:00 AM)
Average temperature yesterday: 50 °F

High & Low Weather Summary for the Past Weeks

 TemperatureHumidityPressure
High67 °F (Sep 24, 3:00 PM)99% (Sep 14, 5:00 PM)30.22 "Hg (Sep 14, 5:00 PM)
Low34 °F (Sep 20, 5:00 AM)38% (Sep 27, 3:00 PM)29.47 "Hg (Sep 29, 12:00 PM)
Average53 °F82%29.92 "Hg
* Reported Sep 14 12:00 PM — Sep 29 12:00 PM, Mudgee, Weather by CustomWeather, © 2016

Note: Actual official high and low records may vary slightly from our data, if they occured in-between our weather recording intervals... More about our weather records

Advertising

Mudgee Weather History for the Previous 24 Hours

Scroll right to see more
 ConditionsComfort  
Time TempWeatherWind HumidityBarometerVisibility
12:00 PM
Thu, Sep 29
57 °FOvercast.14 mph74%29.47 "HgN/A
11:00 AM56 °FCool.15 mph99%29.50 "HgN/A
9:00 AM53 °FFog.1 mph99%29.54 "HgN/A
8:00 AM52 °FCool.3 mph98%29.56 "HgN/A
6:00 AM49 °FOvercast.6 mph98%29.60 "HgN/A
5:00 AM48 °FCool.6 mph94%29.58 "HgN/A
3:00 AM49 °FOvercast.5 mph79%29.64 "HgN/A
2:00 AM48 °FCool.5 mph80%29.67 "HgN/A
12:00 AM46 °FCool.No wind80%29.76 "HgN/A
11:00 PM
Wed, Sep 28
47 °FCool.6 mph76%29.79 "HgN/A
9:00 PM51 °FCool.7 mph71%29.81 "HgN/A
8:00 PM52 °FCool.9 mph69%29.82 "HgN/A
6:00 PM59 °FRefreshingly cool.9 mph53%29.80 "HgN/A
5:00 PM64 °FMild.7 mph48%29.79 "HgN/A
3:00 PM65 °FMild.7 mph45%29.82 "HgN/A
2:00 PM64 °FMild.6 mph44%29.85 "HgN/A
Weather by CustomWeather, © 2016

See weather overviewHow to use our weather pages